[Date Prev][Date Next][Thread Prev][Thread Next] - [Date Index][Thread Index][Author Index]
2 Line ISS Keps 1-3
- Subject: [sarex] 2 Line ISS Keps 1-3
- From: "Dave Larsen PhD" <doc@xxxxxxxxxxx>
- Date: Thu, 3 Feb 2005 04:04:47 -0800
ISS
1 25544U 98067A 05034.28460648 -.00037791 00000-0 -29699-3 0 7300
2 25544 51.6427 225.6181 0009699 59.7758 290.1543 15.70498163354624
----
Via the sarex mailing list at AMSAT.ORG courtesy of AMSAT-NA.
To unsubscribe, send "unsubscribe sarex" to Majordomo@amsat.org
AMSAT Home